TRANSIT 5B-1 DEB, 2097

Orbit data source: Space-Track

TRANSIT 5B-1 DEB, 2097 is space debris in LEO originally from a launch on Sat, 28 Sep 1963 UTC launched from the Air Force Western Test Range (AFWTR). Debris objects in space refer to the collection of defunct objects orbiting the Earth. Examples of debris include non-operational satellites, rocket bodies, and fragments generated from explosions, collisions, or faulty payload assembly.

Loading next visibility...
Identifier
2097, 1963-038G
Orbit
LEO
Country
Flag of USUS
Related business
Manufacturer
Unknown
Mission
Spacecraft
Bus & Motor
Unknown
Mass
Unknown
Launch date (UTC)
1963-09-28 (62 years ago)
Launch vehicle
Unknown
Launch site
Air Force Western Test Range (AFWTR)
Object type
Payload
Rocket body
Debris
Shape & HBR
Unknown
Radar Cross Section
Small (<0.1 m²)

Expand to show TLE details & history
Last TLE update: 17 hours ago

TLE from 17 hours ago
0 TRANSIT 5B-1 DEB
1 02097U 63038G   25243.22384753  .00000894  00000-0  10707-2 0  9996
2 02097  90.0092 338.1383 0037732 338.1004  50.7644 13.66019238 60034
Epoch: 2025-08-31T05:22Z
TLE epoch observation values (Epoch: 2025-08-31T05:22:20.426Z)
Latitude
29.2457°
Longitude
-82.0988°
Altitude
1,000.025 km
Speed
7.363 km/s
True Right ascension
22h 32m 31s
True Declination
29° 06' 15"
Sunlit
Object was in full shadow at epoch
Visualization orbit readout
Latitude
Unknown
Longitude
Unknown
Altitude
Unknown
Speed
Unknown
Apparent Right ascension
Unknown
Apparent Declination
Unknown
Sunlit
N/A
Visualization observer readout
Local Sidereal Time
13:43:22
Azimuth
Unknown
Elevation
Unknown
Doppler factor
Unknown
Orbital elements
Apogee altitude
1,038.804 km
Perigee altitude
983.043 km
Semi-major axis
7,389.061 km
Eccentricity
0.00377
Inclination
90.0092°
RAAN
338.1383°
Arg. of periapsis
338.1004°
True anomaly
51.1003°
Mean anomaly
50.7644°
Eccentric anomaly
50.93225°
Mean motion
3.41711 °/min
Orbital period
105.35 mins
BSTAR
0.0010707
Loading maneuver chart data...
Computing Atmospheric mass density...

Documentation

Showing up to 5 results
|